Wind_Speed
26 29 30 30 31 33 33 32 31 28 24 25 26 28 29 29 29 28 29 30 30 32 33 32 32 31 31 31 31 31 31 31 31 32 33 33 33 34 35 36 36 37
30 33 35 35 36 38 39 38 38 37 33 31 31 33 34 33 31 29 29 29 29 31 33 34 34 33 33 33 32 32 32 31 32 33 34 34 34 35 35 35 35 36
29 32 35 36 34 35 38 38 38 40 41 39 37 37 38 37 34 32 31 30 30 31 34 36 36 35 35 36 35 34 32 30 31 33 34 35 35 36 36 36 37 37
26 30 34 37 36 37 39 40 40 40 42 44 44 44 43 42 40 39 40 38 35 33 33 34 35 35 36 36 35 35 32 30 31 33 35 36 37 38 38 38 39 39
19 24 29 33 36 40 42 43 43 42 42 45 47 48 48 47 45 46 48 47 43 38 33 33 35 36 36 36 35 35 34 32 32 34 37 38 39 39 39 40 39 39
19 20 23 25 29 33 37 41 44 46 46 47 49 50 50 50 48 47 49 50 48 43 35 33 36 38 37 37 37 36 36 35 35 36 38 39 39 39 39 39 39 38
22 23 23 24 25 27 30 34 38 44 48 50 51 52 52 51 49 47 48 50 50 47 39 35 37 39 39 38 38 38 38 37 37 38 38 38 38 39 39 38 37 37
24 26 26 27 28 29 30 31 34 38 43 48 51 53 54 53 52 50 50 49 49 49 47 43 42 42 42 41 40 41 40 40 40 41 40 38 38 39 40 38 37 37
29 29 29 30 30 32 33 34 35 36 38 43 47 52 55 55 54 52 52 51 50 49 50 50 48 46 46 46 46 46 45 44 44 44 42 39 39 40 40 37 36 36
37 36 35 35 34 34 35 36 37 37 38 41 44 48 53 56 56 54 53 54 52 49 50 52 52 51 51 52 53 52 50 49 49 48 44 41 40 40 38 36 36 37
45 45 44 43 42 41 40 40 40 40 41 42 44 47 50 52 55 56 54 54 54 52 52 53 53 53 54 55 55 53 52 51 50 50 46 43 42 40 37 38 39 38
52 52 52 51 51 50 49 48 46 44 44 44 44 46 49 50 51 54 55 54 55 56 55 54 54 53 54 55 54 53 52 49 50 52 48 44 42 40 39 40 41 39
57 58 58 58 57 56 56 56 54 51 48 46 44 44 48 50 51 53 55 56 56 58 58 56 54 53 53 54 54 54 53 50 50 51 48 43 42 41 42 42 41 38
61 62 62 62 63 63 62 62 61 58 54 50 46 44 45 48 49 48 51 55 58 59 59 57 55 54 54 54 54 54 53 50 48 46 44 42 41 42 44 44 40 36
65 66 67 67 68 68 67 66 65 62 58 53 48 45 44 46 44 40 40 46 53 58 59 58 56 55 54 53 52 52 52 51 48 44 42 41 41 43 45 45 41 36
66 68 69 70 71 72 71 70 68 64 60 55 50 46 44 45 46 44 42 43 47 51 56 58 56 55 54 53 52 51 51 50 49 46 43 42 43 43 45 46 43 38
67 69 70 71 73 74 74 72 69 65 60 55 51 46 44 45 47 49 49 49 48 47 49 53 54 54 53 51 50 50 48 48 47 46 45 44 43 43 44 45 45 41
69 71 73 74 74 75 75 73 69 63 58 54 51 47 44 45 47 49 50 50 50 49 48 49 51 53 52 50 48 47 46 45 45 45 45 44 43 43 44 45 45 43
71 73 75 77 77 76 75 72 67 61 56 52 50 47 44 45 47 50 50 47 47 50 51 49 49 51 51 51 49 46 44 44 45 44 44 44 43 43 44 45 46 45
76 77 78 80 79 77 73 69 65 59 53 49 47 46 44 45 47 49 51 50 49 51 52 49 49 51 51 51 50 47 44 43 44 46 46 44 43 43 44 45 46 47
80 81 82 82 81 77 71 66 61 57 51 47 44 44 43 44 47 49 50 53 55 56 55 52 52 52 51 51 51 50 46 43 44 46 47 45 44 44 45 46 47 47
83 84 84 84 81 76 70 63 58 54 50 45 42 41 41 42 45 48 49 52 56 58 57 55 54 54 52 51 51 50 48 45 44 45 47 46 46 45 46 47 47 47
85 85 86 85 80 74 67 61 56 52 48 44 40 39 39 40 42 46 49 51 55 58 58 55 53 52 54 55 53 51 49 47 45 46 47 47 47 47 47 47 48 47
87 87 87 85 80 72 64 59 55 51 47 43 39 37 37 38 41 44 47 50 54 59 61 60 54 49 50 53 54 53 51 50 48 47 47 48 48 48 48 47 47 46
90 89 88 84 78 71 63 58 54 49 45 42 38 35 35 37 39 42 44 47 52 57 62 65 62 55 49 47 50 53 54 52 51 49 49 50 49 49 49 48 47 47
92 91 89 84 77 69 63 57 53 48 44 41 38 34 33 35 38 40 42 45 49 55 60 64 66 64 56 47 44 47 51 53 53 51 50 51 50 49 49 48 48 47
Wind_Direction
300 300 300 300 298 296 294 292 290 288 284 277 272 272 275 280 285 292 300 303 306 311 312 311 312 316 320 324 327 330 331 328 322 317 314 312 309 307 304 302 301 300
296 297 298 298 298 296 294 293 293 290 285 279 274 272 271 271 275 284 293 296 300 306 309 310 312 315 319 324 327 329 332 331 326 321 318 313 309 306 304 304 305 306
292 292 295 297 298 295 291 290 290 290 289 285 282 280 276 273 273 280 289 292 294 298 303 307 310 313 318 321 325 327 329 330 329 325 321 316 312 310 309 309 309 310
289 290 291 294 295 293 290 289 287 287 287 287 287 286 285 282 279 280 287 289 289 290 296 302 305 309 315 319 321 322 323 325 326 327 325 321 317 313 312 310 310 310
310 303 299 298 296 292 290 288 285 284 285 284 284 285 286 287 286 286 289 291 290 287 289 296 299 302 309 314 316 316 317 319 321 324 325 324 320 315 312 310 309 310
332 326 322 319 314 307 300 292 285 282 281 281 281 281 282 284 287 289 291 293 293 290 287 288 292 295 300 307 310 310 312 316 319 321 322 323 321 317 314 312 311 312
328 325 324 324 324 323 317 307 295 286 281 278 278 278 279 279 281 284 286 288 290 291 288 283 283 287 292 298 303 305 307 311 316 317 319 321 320 319 318 316 315 315
330 323 320 318 317 317 318 316 311 302 291 282 277 276 277 277 278 279 280 282 285 286 286 282 279 280 285 290 296 300 300 303 310 314 317 319 319 321 322 320 317 318
338 330 325 320 317 314 312 310 311 310 303 292 282 276 274 274 276 276 276 277 281 282 282 281 279 278 280 284 289 293 294 297 303 310 315 317 318 321 323 323 321 321
340 337 332 327 322 317 312 307 304 302 301 297 290 281 274 271 272 274 274 274 277 278 277 278 279 278 279 282 286 288 290 293 297 303 309 313 315 319 323 327 327 325
340 337 334 331 327 323 318 313 308 302 298 295 291 286 279 273 270 270 271 272 273 273 273 275 276 277 278 281 284 286 287 290 294 298 303 307 310 314 319 326 329 327
339 337 334 332 329 326 323 319 315 308 300 294 289 285 281 277 272 267 266 268 270 270 271 273 274 274 276 279 281 282 284 287 291 295 298 301 305 308 312 320 327 328
337 335 333 331 329 327 323 320 316 311 304 295 288 282 278 276 274 269 265 264 266 267 269 271 272 272 271 273 276 278 280 285 289 292 294 296 299 303 307 313 322 327
336 334 332 331 328 326 323 319 316 312 307 298 289 281 274 271 272 274 270 265 263 264 266 267 268 268 269 270 272 275 279 283 286 289 290 293 295 299 304 309 316 323
335 334 332 330 327 324 321 318 315 311 307 300 291 281 272 266 265 268 269 265 262 261 262 263 264 264 266 269 270 273 278 281 283 285 286 288 292 297 302 306 311 318
334 332 331 329 326 323 320 317 314 310 306 300 292 282 272 264 258 255 256 257 259 260 260 260 261 262 263 265 267 270 275 278 280 281 283 285 290 295 299 303 307 312
334 332 330 328 325 322 319 316 313 310 305 299 292 283 272 263 256 252 250 250 251 254 255 255 256 258 259 261 264 268 271 275 277 279 280 283 288 292 295 300 303 307
335 333 330 328 325 322 319 316 313 309 304 298 291 283 272 262 256 251 249 248 247 246 250 253 252 253 255 256 259 263 267 271 274 276 279 281 285 289 291 295 299 303
336 334 331 328 326 323 320 316 313 309 304 298 290 283 273 263 256 251 246 246 245 243 245 249 248 248 251 252 253 257 262 266 269 272 276 280 282 284 287 291 295 299
337 335 333 330 327 324 321 317 313 309 305 298 290 283 274 264 256 251 245 242 241 238 238 242 245 245 246 247 248 251 254 260 265 268 272 276 278 280 283 286 291 296
337 336 334 331 328 326 322 318 314 310 305 299 290 282 275 265 257 252 246 240 237 234 232 236 241 242 242 243 244 246 249 254 260 264 267 271 273 275 279 283 288 292
338 336 334 332 330 327 324 320 316 311 306 300 291 281 274 266 258 252 247 241 236 233 231 233 237 239 239 239 240 242 244 248 254 259 262 265 268 271 276 280 284 289
338 337 335 333 331 328 325 322 318 313 307 301 293 283 273 265 258 253 248 242 237 232 229 229 233 237 238 237 237 239 241 243 247 253 257 261 265 269 273 277 281 286
339 338 337 335 332 330 328 324 319 315 309 303 295 285 275 265 258 253 248 243 237 232 228 227 228 232 237 238 237 236 239 242 244 248 253 257 261 265 269 274 278 283
339 339 338 337 334 332 330 326 321 316 311 305 297 288 276 266 259 254 249 244 238 234 230 228 227 228 232 238 238 237 238 240 242 245 249 254 258 262 266 270 274 279
340 340 339 338 335 333 331 328 324 318 312 306 300 290 279 267 259 254 250 245 240 235 231 229 227 227 229 233 237 238 238 239 242 244 247 252 255 259 263 267 271 275
Height
10673 10670 10669 10669 10667 10664 10662 10660 10659 10657 10655 10652 10650 10647 10644 10641 10639 10638 10636 10635 10635 10634 10634 10632 10630 10628 10625 10623 10621 10618 10616 10614 10612 10610 10608 10606 10604 10603 10600 10597 10595 10592
10673 10669 10667 10666 10665 10662 10658 10657 10655 10654 10652 10650 10647 10644 10641 10639 10637 10635 10633 10632 10631 10631 10630 10629 10627 10624 10621 10619 10616 10614 10612 10610 10608 10606 10605 10603 10601 10599 10596 10593 10590 10588
10671 10667 10664 10663 10664 10661 10656 10654 10652 10650 10648 10646 10644 10641 10637 10636 10635 10633 10631 10630 10628 10626 10626 10625 10623 10620 10617 10614 10612 10610 10608 10606 10604 10603 10601 10600 10597 10595 10592 10588 10586 10583
10668 10666 10663 10661 10661 10659 10654 10652 10649 10647 10645 10642 10640 10637 10634 10633 10632 10630 10628 10626 10624 10622 10621 10621 10619 10616 10613 10611 10608 10606 10605 10603 10601 10599 10597 10595 10593 10590 10587 10584 10582 10579
10666 10665 10662 10659 10656 10654 10651 10648 10646 10643 10642 10639 10636 10633 10630 10629 10627 10625 10623 10621 10619 10618 10617 10616 10614 10611 10610 10607 10605 10604 10602 10600 10597 10595 10593 10591 10589 10586 10583 10580 10578 10575
10664 10662 10659 10655 10652 10649 10646 10644 10641 10639 10637 10635 10632 10629 10626 10624 10623 10622 10618 10615 10614 10613 10612 10611 10609 10607 10605 10603 10602 10600 10598 10596 10594 10592 10589 10587 10585 10582 10580 10577 10574 10571
10661 10659 10656 10652 10649 10645 10642 10639 10636 10633 10631 10629 10627 10624 10621 10619 10618 10617 10614 10611 10609 10607 10607 10606 10605 10602 10600 10599 10597 10595 10594 10592 10590 10588 10586 10584 10581 10579 10576 10573 10570 10568
10658 10655 10651 10648 10645 10641 10638 10635 10631 10628 10625 10622 10620 10617 10615 10613 10612 10612 10609 10606 10604 10602 10601 10600 10599 10598 10596 10594 10593 10591 10590 10588 10586 10585 10583 10581 10578 10576 10573 10570 10567 10564
10655 10651 10647 10644 10640 10636 10633 10629 10626 10623 10619 10616 10613 10610 10607 10606 10605 10605 10603 10601 10600 10598 10595 10594 10593 10593 10591 10589 10588 10587 10586 10584 10583 10581 10580 10578 10575 10573 10571 10568 10565 10562
10649 10646 10642 10638 10634 10631 10627 10623 10620 10617 10614 10610 10606 10603 10600 10598 10598 10597 10597 10595 10594 10593 10590 10588 10587 10587 10586 10584 10584 10583 10582 10580 10578 10577 10577 10575 10573 10571 10569 10566 10563 10560
10641 10638 10634 10631 10627 10623 10619 10616 10613 10610 10606 10603 10599 10595 10592 10590 10590 10590 10590 10589 10588 10586 10584 10582 10582 10581 10580 10579 10578 10578 10577 10576 10574 10573 10573 10572 10570 10569 10567 10564 10561 10558
10633 10630 10626 10622 10618 10614 10609 10605 10602 10600 10597 10593 10590 10587 10584 10582 10581 10581 10582 10582 10581 10579 10578 10577 10576 10576 10575 10574 10573 10572 10572 10572 10570 10568 10569 10568 10566 10565 10564 10562 10559 10556
10627 10622 10618 10613 10609 10605 10600 10596 10592 10589 10586 10583 10580 10578 10575 10574 10573 10572 10573 10575 10574 10572 10571 10571 10570 10569 10569 10568 10567 10567 10567 10568 10566 10564 10564 10564 10563 10562 10560 10559 10557 10554
10619 10615 10610 10605 10600 10595 10590 10585 10581 10578 10575 10572 10570 10568 10566 10565 10566 10566 10565 10565 10565 10564 10563 10564 10563 10562 10562 10562 10562 10560 10561 10562 10561 10560 10560 10560 10559 10558 10557 10556 10555 10553
10611 10606 10601 10596 10590 10585 10579 10575 10570 10566 10563 10561 10558 10557 10556 10555 10559 10559 10556 10555 10555 10555 10555 10555 10555 10555 10555 10556 10556 10555 10555 10556 10556 10555 10555 10555 10554 10554 10553 10552 10552 10550
10606 10600 10594 10587 10580 10574 10568 10563 10558 10554 10550 10548 10546 10546 10545 10544 10545 10546 10545 10544 10545 10546 10546 10546 10547 10548 10548 10549 10549 10550 10550 10550 10550 10550 10550 10550 10550 10549 10549 10548 10547 10547
10601 10594 10588 10581 10573 10565 10557 10551 10546 10542 10538 10535 10533 10533 10533 10532 10532 10532 10533 10534 10535 10535 10535 10536 10539 10540 10541 10542 10543 10544 10544 10544 10544 10545 10545 10545 10545 10545 10544 10544 10543 10543
10594 10586 10578 10571 10563 10555 10546 10539 10534 10529 10526 10522 10520 10520 10521 10521 10520 10521 10523 10524 10525 10525 10525 10527 10531 10532 10534 10536 10537 10538 10539 10539 10539 10539 10539 10540 10540 10540 10540 10539 10539 10539
10585 10577 10568 10559 10551 10543 10534 10526 10521 10517 10514 10510 10508 10507 10508 10509 10508 10510 10513 10515 10516 10517 10516 10518 10521 10524 10526 10529 10531 10532 10533 10533 10533 10533 10533 10534 10535 10535 10535 10535 10535 10535
10572 10565 10557 10548 10539 10531 10523 10515 10508 10504 10501 10499 10496 10495 10495 10496 10497 10499 10502 10504 10505 10506 10508 10509 10511 10515 10518 10521 10523 10525 10526 10527 10528 10528 10528 10529 10530 10530 10530 10530 10530 10531
10560 10553 10545 10536 10526 10517 10510 10503 10497 10492 10489 10487 10485 10483 10483 10484 10485 10487 10491 10493 10494 10496 10499 10501 10502 10505 10510 10513 10515 10517 10520 10521 10522 10522 10523 10524 10525 10525 10525 10525 10526 10526
10551 10543 10534 10525 10515 10506 10498 10491 10486 10481 10477 10475 10474 10472 10471 10472 10474 10476 10479 10482 10484 10488 10492 10493 10493 10497 10502 10505 10507 10510 10512 10515 10516 10516 10517 10518 10519 10520 10521 10521 10521 10522
10541 10533 10523 10513 10504 10496 10488 10481 10475 10470 10466 10464 10463 10462 10461 10462 10463 10465 10468 10472 10475 10479 10482 10484 10486 10489 10493 10496 10500 10503 10505 10507 10509 10510 10511 10512 10514 10515 10515 10516 10517 10518
10531 10524 10515 10503 10492 10485 10479 10471 10465 10460 10456 10454 10453 10453 10453 10453 10453 10455 10458 10462 10465 10469 10472 10474 10478 10481 10484 10488 10493 10497 10498 10500 10503 10504 10505 10507 10508 10509 10510 10511 10512 10514
10520 10514 10505 10495 10484 10475 10469 10463 10456 10451 10448 10445 10444 10445 10445 10444 10444 10446 10449 10453 10456 10460 10462 10465 10468 10472 10476 10480 10485 10490 10492 10494 10495 10497 10499 10501 10503 10504 10505 10507 10508 10509
10511 10502 10494 10485 10476 10467 10461 10455 10448 10443 10440 10437 10436 10436 10436 10436 10436 10438 10441 10444 10448 10451 10454 10457 10460 10464 10468 10474 10479 10482 10485 10488 10489 10491 10493 10495 10497 10499 10500 10502 10504 10505